Wind_Speed
127 123 128 128 124 130 136 127 122 126 114 107 103 94 87 82 76 74 74 67 68 69 69 68 65 64 62 59 58 62 61 58 50 43 39 35 32 28 25 24 26 28 30 34
131 130 130 128 121 124 117 123 121 113 103 95 87 83 78 75 73 70 67 66 67 68 66 63 62 62 59 55 58 59 56 46 40 36 32 27 22 21 19 20 23 28 34 37
129 123 126 117 118 115 109 106 99 91 86 83 79 76 73 72 69 66 65 65 67 65 63 62 61 60 58 54 56 53 44 38 33 30 27 23 20 19 21 25 28 32 36 38
114 115 114 106 107 100 101 93 87 80 74 73 73 72 70 67 65 64 65 65 63 63 61 59 59 58 54 50 51 44 36 34 30 27 24 24 24 25 25 27 30 32 34 38
102 96 96 94 91 88 87 79 76 72 70 69 67 65 65 62 62 62 62 61 61 61 60 56 55 53 50 46 43 35 32 31 27 26 25 26 27 27 27 29 32 34 36 39
87 83 82 78 81 79 79 64 68 67 63 62 62 63 61 59 59 59 60 59 58 58 56 54 54 52 44 40 34 31 30 29 27 26 26 24 24 26 28 31 35 40 43 48
76 71 66 70 68 70 67 62 61 60 60 61 61 59 57 57 57 57 57 57 56 55 53 51 50 43 39 33 30 30 30 28 25 24 22 23 27 31 35 38 41 46 51 54
66 61 57 62 66 63 59 58 57 58 59 59 58 56 54 53 54 53 55 56 55 53 49 45 43 36 32 29 27 30 27 22 20 22 25 30 33 37 41 46 50 54 56 58
58 53 56 56 57 56 56 56 55 56 59 57 55 53 52 52 51 52 54 53 49 46 41 39 36 30 28 25 24 24 21 20 23 27 31 34 38 43 48 52 55 58 60 61
49 50 54 54 56 55 55 55 55 55 55 54 52 50 49 49 49 50 50 48 45 39 37 35 29 25 25 21 20 21 23 26 28 31 35 39 44 49 54 57 60 62 63 63
48 52 54 54 54 51 52 52 53 53 50 50 52 49 48 47 48 47 48 47 40 38 32 28 25 22 20 18 21 26 27 29 32 36 40 45 51 55 59 61 62 64 64 63
50 51 51 50 46 45 46 49 51 47 48 52 50 49 47 46 44 44 46 42 37 32 28 25 24 22 22 22 25 27 30 33 37 41 46 51 56 60 63 65 65 64 63 62
47 48 46 42 43 41 44 46 45 47 51 53 52 48 44 42 41 42 44 37 32 28 24 24 24 24 25 26 27 30 34 38 43 47 52 57 60 63 66 68 68 65 61 59
45 41 39 38 39 41 42 44 46 48 50 50 46 41 37 40 39 44 39 33 29 25 24 25 25 26 28 29 31 34 38 43 47 52 56 60 63 66 68 69 69 65 62 60
39 35 36 39 41 42 43 45 46 48 49 47 42 39 39 39 43 43 35 31 26 23 26 26 28 30 32 33 34 38 42 46 51 54 58 63 66 68 70 69 67 63 61 59
36 36 39 43 42 42 43 43 44 45 43 42 38 37 37 42 42 37 32 27 24 24 25 29 32 31 32 33 37 41 46 50 53 57 61 64 67 70 70 69 66 62 58 56
39 39 41 38 40 41 41 41 40 37 37 38 36 35 38 38 36 29 26 24 25 24 26 30 30 30 33 36 40 44 48 52 55 59 63 67 70 70 70 67 63 59 56 54
41 38 35 37 39 41 40 38 35 34 35 35 36 37 36 32 27 25 24 24 23 24 28 29 29 32 36 40 43 47 51 55 59 63 67 71 72 72 70 66 61 56 54 51
39 37 35 36 35 36 38 37 35 36 35 35 35 34 33 29 25 23 22 22 22 26 28 28 31 36 40 42 45 51 56 60 64 68 71 73 73 72 68 62 58 55 52 50
37 33 32 31 32 34 35 35 35 35 32 31 33 32 29 26 23 19 17 17 20 25 28 31 34 39 43 47 52 57 62 65 68 71 74 73 72 68 64 60 57 54 51 48
35 33 32 32 30 31 32 33 31 29 28 28 28 26 26 23 18 17 17 18 24 29 31 33 38 44 48 53 58 61 64 68 72 74 74 72 69 65 62 59 55 52 49 47
31 30 29 29 29 28 26 26 27 25 24 22 23 24 22 19 18 17 19 25 29 31 34 39 43 48 53 57 61 65 69 73 76 76 74 71 67 63 60 56 53 51 49 46
25 23 22 23 23 23 24 23 22 20 20 21 23 21 19 18 18 22 26 30 32 36 41 45 49 54 58 62 67 71 74 77 78 76 72 68 64 60 56 53 51 50 47 46
18 20 21 22 21 21 20 19 19 20 21 20 19 18 18 21 24 27 31 35 40 44 48 52 55 60 64 68 72 76 79 79 77 73 69 64 61 57 54 51 49 47 46 46
15 17 18 18 18 18 19 20 20 18 17 17 18 21 24 26 29 33 38 43 47 51 54 57 61 65 70 73 77 80 80 78 74 70 65 61 57 54 51 49 47 47 46 47
14 15 17 17 17 16 15 14 14 15 17 20 24 27 29 32 36 40 44 49 53 56 59 62 66 71 74 77 80 79 77 74 69 65 61 57 54 51 49 47 47 47 47 48
13 13 13 12 11 12 13 15 17 19 22 26 29 32 36 39 44 48 51 54 56 60 63 68 71 74 78 78 77 75 72 68 64 61 57 53 51 49 47 47 47 48 49 50
Wind_Direction
273 273 272 273 275 275 278 280 284 289 288 289 289 287 287 287 285 283 285 287 284 285 286 288 288 289 291 292 292 295 298 301 298 297 297 293 287 280 273 268 266 262 261 262
275 275 274 275 275 273 278 281 285 286 287 285 286 287 285 284 283 286 286 285 284 286 287 288 290 291 291 290 293 295 299 296 296 297 295 293 288 284 280 280 276 264 261 264
272 274 277 277 282 282 282 282 284 284 283 283 283 283 283 283 285 284 282 280 282 286 286 287 289 289 290 290 292 295 292 291 292 292 291 287 286 283 280 278 275 273 273 273
271 273 277 279 280 279 280 280 281 282 281 280 279 280 280 281 278 277 277 280 284 285 286 289 289 290 290 292 291 290 289 288 288 289 286 282 279 278 276 276 278 279 280 281
270 274 274 276 276 276 277 280 280 279 278 277 276 277 276 276 276 277 280 281 283 286 287 288 290 291 292 290 287 284 285 283 283 281 278 276 275 281 285 285 285 288 292 294
269 269 272 272 275 275 275 279 276 274 274 274 273 274 277 277 277 277 278 281 284 287 290 293 293 292 290 288 283 283 279 274 277 277 278 281 284 288 289 291 295 298 299 298
267 269 268 268 270 270 274 270 267 268 269 269 272 274 274 275 276 277 281 283 286 287 290 291 288 288 288 283 280 274 272 273 274 278 284 288 291 294 297 299 299 299 300 300
267 268 266 262 264 267 266 265 265 265 268 269 271 273 273 273 276 279 281 282 284 287 288 286 283 283 279 277 273 269 269 272 278 286 291 294 297 299 301 302 302 302 301 300
265 263 261 262 262 261 261 261 263 264 266 269 269 271 271 272 274 276 279 282 285 286 286 283 282 275 274 270 266 264 267 280 290 293 295 298 300 302 302 303 304 304 303 301
258 256 257 256 255 256 257 261 263 264 266 269 270 271 271 273 275 280 284 285 285 288 283 279 271 266 267 266 267 274 285 293 295 296 300 302 304 304 304 306 307 307 306 304
255 253 252 250 252 254 257 261 262 262 265 266 266 269 273 276 281 284 284 285 290 287 282 271 259 255 251 257 271 280 290 297 301 303 304 305 306 306 307 308 309 309 309 307
248 250 252 255 258 257 257 257 259 262 264 265 268 270 273 276 279 280 282 286 287 280 273 258 246 245 249 259 271 283 293 298 303 304 306 307 308 308 309 311 311 310 308 307
247 247 249 251 257 259 255 255 256 256 256 261 266 269 273 276 278 278 281 287 281 273 255 244 243 253 261 273 285 292 297 301 305 307 308 308 308 309 311 312 312 312 311 309
248 251 250 249 250 255 255 255 253 254 259 264 269 273 276 278 281 281 285 280 272 258 244 239 249 258 269 280 287 294 300 304 306 306 307 307 309 311 312 313 313 314 311 310
251 252 251 249 246 249 251 252 254 256 262 268 274 277 278 280 277 280 279 271 260 246 237 241 252 263 274 281 288 297 303 303 304 305 307 308 310 312 312 314 314 313 311 309
249 247 246 245 245 245 250 253 254 259 265 268 271 271 270 270 275 274 266 259 247 242 244 249 258 271 280 287 296 300 301 302 304 307 307 308 312 313 314 314 313 311 309 307
248 244 246 249 252 252 250 254 258 262 263 263 266 264 267 272 272 261 254 241 239 244 250 258 268 280 287 294 297 299 301 304 307 308 310 313 314 315 315 314 312 310 308 306
248 248 247 246 248 253 257 259 260 257 257 260 262 266 270 271 258 249 238 236 242 249 258 268 279 288 292 295 300 303 304 307 310 312 314 314 315 315 313 312 310 309 307 304
250 250 249 246 247 249 252 253 253 252 255 258 260 261 261 254 244 236 235 239 247 257 266 278 287 291 293 299 303 304 307 310 312 314 314 315 315 314 312 311 310 308 306 305
259 253 250 246 243 244 246 248 249 252 255 255 252 251 247 238 232 230 237 247 258 269 277 284 289 292 296 301 305 306 309 311 313 314 315 315 314 313 311 310 309 307 307 305
256 254 249 245 244 242 243 247 251 252 250 244 243 241 231 229 227 234 247 262 269 276 282 287 290 294 300 303 305 308 311 313 314 315 315 315 314 313 311 310 308 307 306 305
239 242 244 243 243 247 247 244 242 243 241 236 227 224 221 224 236 249 263 270 275 281 285 289 293 298 301 304 307 311 313 315 316 316 316 314 313 312 311 309 308 307 306 305
237 243 241 237 233 233 234 233 232 227 219 218 218 220 228 242 257 266 270 276 282 285 289 293 296 299 303 307 310 313 314 316 316 315 313 313 312 310 309 308 308 307 305 305
224 227 227 228 228 224 222 214 213 212 213 216 224 236 251 262 270 273 277 282 285 288 292 295 297 302 306 309 312 314 315 314 313 312 312 311 310 309 308 307 307 306 306 306
217 218 217 215 211 207 205 209 212 215 224 237 251 264 271 275 278 279 282 285 288 290 293 296 300 305 309 310 312 313 313 312 312 312 311 310 309 308 307 307 306 306 306 306
197 195 196 197 201 203 206 216 230 244 256 267 276 278 277 278 281 283 285 287 289 292 296 301 305 307 308 310 311 311 311 310 311 310 310 309 308 308 307 307 307 307 307 307
184 183 182 190 202 220 236 251 262 271 276 279 279 279 281 284 285 286 287 289 293 298 301 304 306 307 309 310 310 309 309 310 310 309 309 308 308 308 307 307 307 307 308 309
Height
10389 10389 10384 10385 10391 10388 10383 10376 10367 10369 10371 10355 10346 10342 10342 10337 10331 10325 10322 10322 10316 10311 10306 10302 10297 10291 10287 10283 10276 10269 10264 10257 10249 10244 10239 10234 10230 10229 10228 10229 10230 10232 10234 10235
10353 10352 10350 10352 10367 10364 10355 10348 10345 10343 10351 10331 10327 10319 10316 10311 10307 10307 10305 10301 10296 10293 10289 10285 10280 10276 10273 10268 10262 10256 10251 10245 10240 10235 10231 10227 10225 10223 10222 10223 10225 10225 10226 10226
10326 10322 10319 10327 10341 10324 10320 10319 10316 10320 10320 10313 10307 10302 10296 10291 10291 10289 10286 10282 10280 10277 10273 10270 10266 10262 10259 10255 10248 10244 10240 10236 10231 10227 10224 10221 10220 10218 10218 10218 10218 10218 10217 10216
10296 10297 10295 10311 10303 10302 10297 10296 10294 10297 10295 10292 10288 10284 10280 10279 10276 10274 10269 10267 10265 10261 10258 10255 10251 10248 10244 10240 10234 10231 10228 10225 10222 10219 10216 10215 10214 10213 10212 10212 10211 10209 10208 10206
10269 10276 10280 10286 10281 10271 10270 10280 10275 10274 10271 10270 10268 10266 10263 10263 10261 10258 10254 10253 10251 10247 10244 10242 10238 10232 10230 10227 10222 10220 10218 10216 10213 10211 10209 10208 10207 10206 10205 10204 10202 10199 10197 10194
10252 10258 10262 10259 10251 10253 10250 10267 10252 10251 10254 10252 10250 10248 10248 10248 10246 10243 10241 10240 10238 10233 10229 10226 10222 10218 10216 10213 10210 10209 10209 10207 10205 10204 10202 10201 10199 10198 10196 10195 10192 10188 10184 10180
10228 10236 10243 10238 10235 10230 10238 10241 10238 10237 10236 10235 10234 10235 10235 10233 10231 10229 10226 10224 10222 10219 10217 10213 10208 10206 10203 10201 10201 10200 10199 10198 10196 10195 10195 10193 10191 10190 10187 10184 10181 10176 10171 10165
10209 10217 10225 10217 10214 10218 10220 10223 10222 10221 10220 10220 10219 10221 10221 10219 10217 10216 10214 10211 10209 10207 10204 10200 10196 10195 10193 10192 10192 10191 10190 10190 10189 10187 10187 10185 10182 10179 10176 10171 10166 10161 10155 10148
10194 10200 10198 10199 10197 10200 10203 10205 10207 10207 10205 10206 10207 10208 10208 10208 10206 10204 10201 10198 10196 10193 10190 10187 10185 10184 10183 10183 10183 10183 10183 10183 10182 10179 10177 10175 10172 10168 10163 10158 10152 10145 10137 10129
10178 10179 10180 10182 10183 10186 10188 10190 10192 10192 10192 10193 10194 10194 10196 10195 10193 10191 10188 10185 10182 10181 10178 10176 10176 10175 10174 10175 10176 10177 10176 10175 10173 10171 10168 10164 10160 10155 10149 10142 10135 10127 10118 10110
10160 10161 10162 10166 10169 10175 10177 10178 10179 10179 10181 10182 10180 10181 10182 10182 10181 10179 10174 10171 10170 10168 10167 10167 10166 10167 10168 10170 10170 10170 10169 10166 10163 10160 10156 10152 10146 10140 10133 10126 10119 10110 10100 10090
10143 10145 10149 10154 10160 10164 10166 10166 10166 10169 10169 10166 10168 10170 10172 10172 10170 10167 10163 10161 10160 10158 10158 10158 10158 10160 10162 10164 10164 10162 10160 10157 10154 10149 10144 10138 10131 10125 10117 10109 10101 10094 10085 10075
10132 10134 10140 10146 10148 10152 10154 10156 10157 10157 10154 10154 10157 10160 10162 10161 10159 10156 10152 10152 10150 10150 10150 10150 10151 10153 10154 10155 10154 10152 10150 10146 10141 10136 10131 10125 10117 10110 10102 10093 10082 10074 10065 10057
10119 10126 10132 10134 10136 10138 10143 10142 10143 10145 10144 10144 10147 10149 10149 10147 10146 10143 10142 10141 10141 10141 10142 10143 10145 10146 10146 10146 10145 10143 10140 10135 10130 10125 10118 10111 10103 10095 10087 10077 10067 10057 10048 10039
10110 10117 10122 10123 10124 10124 10128 10130 10132 10133 10133 10134 10136 10136 10136 10136 10134 10132 10132 10132 10133 10134 10136 10138 10139 10139 10139 10138 10137 10133 10129 10124 10119 10113 10105 10097 10089 10080 10071 10062 10051 10042 10033 10024
10101 10105 10105 10106 10110 10113 10114 10118 10122 10123 10124 10125 10126 10127 10127 10125 10124 10124 10124 10124 10125 10127 10129 10131 10132 10132 10131 10129 10126 10122 10118 10113 10107 10101 10092 10084 10075 10065 10055 10045 10036 10027 10018 10009
10088 10091 10092 10097 10099 10101 10105 10108 10111 10113 10114 10114 10116 10116 10115 10115 10115 10115 10115 10117 10119 10121 10122 10123 10124 10122 10120 10118 10115 10112 10106 10100 10094 10087 10078 10069 10059 10049 10038 10029 10019 10011 10003 9995
10077 10080 10084 10087 10089 10091 10093 10096 10099 10101 10102 10103 10103 10104 10105 10105 10105 10106 10108 10110 10113 10114 10115 10115 10114 10112 10109 10107 10104 10098 10091 10085 10079 10070 10061 10051 10042 10031 10021 10012 10002 9994 9987 9980
10068 10071 10074 10077 10080 10083 10084 10086 10088 10090 10091 10093 10094 10095 10096 10097 10098 10100 10102 10104 10105 10106 10106 10106 10104 10101 10097 10095 10092 10085 10078 10072 10064 10055 10045 10034 10024 10013 10003 9994 9986 9978 9971 9965
10059 10062 10065 10067 10070 10071 10074 10076 10079 10081 10083 10084 10085 10086 10087 10089 10091 10093 10095 10097 10097 10097 10097 10096 10094 10090 10086 10083 10078 10071 10063 10056 10047 10038 10027 10017 10006 9995 9986 9977 9970 9962 9956 9949
10050 10053 10055 10057 10060 10063 10065 10067 10070 10072 10074 10075 10077 10079 10081 10084 10086 10088 10089 10089 10089 10088 10087 10086 10083 10078 10074 10069 10063 10056 10048 10038 10029 10019 10008 9997 9986 9977 9968 9960 9953 9947 9941 9935
10040 10044 10048 10051 10054 10056 10058 10060 10062 10065 10067 10069 10071 10074 10077 10079 10081 10082 10082 10081 10080 10078 10077 10075 10071 10066 10061 10055 10047 10039 10030 10020 10010 9999 9988 9978 9969 9960 9952 9945 9938 9931 9925 9920
10034 10039 10043 10046 10049 10050 10052 10055 10057 10060 10062 10065 10068 10070 10072 10073 10074 10075 10074 10072 10070 10068 10067 10063 10059 10053 10047 10039 10031 10022 10012 10001 9990 9980 9970 9961 9953 9945 9937 9930 9923 9917 9911 9905
10031 10034 10038 10041 10043 10046 10048 10051 10054 10057 10059 10062 10064 10065 10066 10067 10067 10066 10064 10062 10060 10057 10054 10049 10044 10037 10030 10022 10012 10003 9993 9982 9972 9962 9953 9944 9936 9929 9921 9915 9909 9903 9896 9891
10028 10031 10035 10038 10041 10043 10047 10050 10052 10055 10057 10058 10059 10060 10060 10059 10058 10056 10054 10051 10047 10043 10039 10034 10028 10020 10012 10003 9994 9985 9974 9963 9953 9944 9935 9928 9920 9913 9907 9901 9895 9889 9883 9877
10028 10031 10034 10038 10041 10043 10046 10048 10050 10052 10053 10053 10052 10052 10051 10050 10048 10046 10043 10039 10034 10029 10024 10018 10011 10003 9994 9985 9976 9965 9955 9945 9936 9928 9919 9912 9905 9899 9893 9886 9880 9875 9869 9863
10030 10033 10035 10038 10040 10042 10044 10045 10045 10045 10045 10045 10044 10043 10041 10039 10037 10034 10030 10025 10020 10013 10007 10000 9992 9984 9975 9966 9956 9946 9936 9927 9919 9911 9904 9897 9891 9885 9879 9873 9867 9860 9854 9847